Location: Brahman Valley
(40.6513°N, 111.8855°W)
Time: 21:38:14
(UTC+00:00)

Vanguard 2 - Pass Details

Date: 19 May 2021
Orbit: 552 x 2937 km, 32.9° (Epoch: 14 June)

Event Time Altitude Azimuth Distance (km) Brightness Sun altitude
Rises 18:00:36 0° 273° (W) 5,706 11.8 62.7°
Reaches altitude 10° 18:05:10 10° 261° (W) 5,036 11.6 63.3°
Maximum altitude 18:15:53 23° 216° (SW) 4,535 11.9 64.7°
Drops below altitude 10° 18:28:07 10° 172° (S) 5,753 12.5 66.1°
Sets 18:34:00 0° 160° (SSE) 6,683 12.6 66.7°
